DW5513 Weather Reports


Display with metric or nautical units.
time (UTC)temp
F
wind
direction
speed
MPH
gust
MPH
rain 1hr
in
rain 24hr
in
rain mn
in
humidity
%
barometer
mb
20260505083008 50 72 0.0 3.0 0.00 0.00 0.00 88 1006.3
20260505081501 49 78 0.0 2.0 0.00 0.00 0.00 89 1006.3
20260505080059 49 79 0.0 2.0 0.00 0.00 0.00 87 1006.2
20260505074558 49 124 0.0 3.0 0.00 0.00 0.00 87 1006.5
20260505073100 48 84 0.0 1.0 0.00 0.00 0.00 87 1006.2
20260505071556 48 80 0.0 3.0 0.00 0.00 0.00 87 1006.2
20260505070055 47 75 0.0 2.0 0.00 0.00 0.00 87 1006.1
20260505064557 47 321 0.0 3.0 0.00 0.00 0.00 87 1006.1
20260505063053 47 24 0.0 2.0 0.00 0.00 0.00 87 1006.2
20260505061550 46 51 0.0 5.0 0.00 0.00 0.00 89 1006.2
20260505060048 46 43 1.0 4.0 0.00 0.00 0.00 88 1006.2
20260505054547 46 72 1.0 3.0 0.00 0.00 0.00 88 1006.2
20260505053049 46 45 1.0 3.0 0.00 0.00 0.00 89 1006.3
20260505051541 46 56 0.0 1.0 0.00 0.00 0.00 89 1006.4
20260505041530 48 76 0.0 2.0 0.00 0.00 0.00 87 1006.3
20260505040026 49 35 0.0 1.0 0.00 0.00 0.00 86 1006.3
20260505034526 49 310 0.0 1.0 0.00 0.02 0.00 86 1006.3
20260505033032 49 39 0.0 2.0 0.00 0.02 0.00 86 1006.2
20260505031523 49 54 0.0 2.0 0.00 0.02 0.00 86 1006.3
20260505030027 50 25 0.0 1.0 0.00 0.02 0.00 86 1006.3
20260505024525 50 41 0.0 2.0 0.00 0.02 0.00 86 1006.4
20260505023022 50 37 0.0 1.0 0.00 0.02 0.00 87 1006.5
20260505021520 50 8 0.0 0.0 0.00 0.02 0.00 87 1006.5
20260505020020 51 8 0.0 1.0 0.00 0.02 0.00 85 1006.6
20260505014520 51 9 0.0 1.0 0.00 0.02 0.00 84 1006.6
20260505013019 52 9 0.0 1.0 0.00 0.02 0.00 82 1006.5
20260505011520 53 10 0.0 1.0 0.00 0.02 0.00 81 1006.5
20260505010017 54 151 0.0 0.0 0.00 0.02 0.00 79 1006.3
20260505004534 56 151 0.0 0.0 0.00 0.02 0.00 77 1006.0
20260505003017 57 151 0.0 0.0 0.00 0.02 0.00 73 1005.9
20260505001514 59 151 0.0 0.0 0.00 0.02 0.00 69 1005.6
20260505000017 62 152 0.0 0.0 0.00 0.02 0.00 66 1005.6
20260504234524 65 176 0.0 0.0 0.00 0.02 0.00 59 1005.6
20260504233013 68 176 0.0 0.0 0.00 0.02 0.00 54 1005.4
20260504231531 67 176 0.0 0.0 0.00 0.02 0.00 53 1005.6
20260504230011 69 177 0.0 1.0 0.00 0.02 0.00 48 1005.4
20260504224508 70 139 0.0 2.0 0.00 0.02 0.00 44 1005.3
20260504223008 69 227 0.0 2.0 0.00 0.02 0.00 44 1005.5
20260504221506 69 251 0.0 4.0 0.00 0.02 0.00 45 1005.5
20260504220006 69 164 0.0 4.0 0.00 0.02 0.00 44 1005.5
20260504214509 70 143 1.0 6.0 0.00 0.02 0.00 42 1005.5
20260504213006 71 236 1.0 5.0 0.00 0.02 0.00 41 1005.4
20260504211500 70 237 2.0 6.0 0.00 0.02 0.00 43 1005.6
20260504210106 70 158 0.0 5.0 0.00 0.02 0.00 46 1005.7
20260504204638 69 239 0.0 4.0 0.00 0.02 0.00 44 1005.7
20260504203057 69 79 0.0 8.0 0.00 0.02 0.00 45 1005.9
20260504201554 69 143 1.0 6.0 0.00 0.02 0.00 45 1006.0
20260504200056 70 70 3.0 7.0 0.00 0.02 0.00 44 1006.1
20260504194554 69 175 1.0 7.0 0.00 0.02 0.00 45 1006.4
20260504193049 69 251 2.0 12.0 0.00 0.02 0.00 43 1006.5
20260504191546 69 156 2.0 10.0 0.00 0.02 0.00 45 1006.6
20260504190053 68 340 1.0 11.0 0.00 0.02 0.00 45 1006.8
20260504184558 68 255 3.0 12.0 0.00 0.02 0.00 46 1006.9
20260504183041 68 175 2.0 7.0 0.00 0.02 0.00 45 1007.0
20260504181538 67 259 4.0 11.0 0.00 0.02 0.00 45 1007.2
20260504180037 67 296 1.0 8.0 0.00 0.02 0.00 46 1007.1
20260504174535 67 252 4.0 11.0 0.00 0.02 0.00 45 1007.3
20260504173033 66 252 3.0 12.0 0.00 0.02 0.00 46 1007.4
20260504171539 65 232 2.0 8.0 0.00 0.02 0.00 50 1007.4